Location: Strawberry
(45.6646°N, 111.9596°W)
Time: 18:08:17
(UTC+00:00)

SR - Pass Details

Date: 11 October 2022
Orbit: 577 x 874 km, 66.7° (Epoch: 05 December)

Event Time Altitude Azimuth Distance (km) Brightness Sun altitude
Exits shadow 12:05:25 27° 236° (SW) 1,355 ? -17.1°
Drops below altitude 10° 12:08:47 10° 193° (SSW) 2,117 ? -16.6°
Sets 12:11:15 0° 181° (S) 2,977 ? -16.1°
